Regional Weather Roundup
Issued by NWS Upton, NY

Home | Current Version | Previous Version | Text Only | Print | Product List | Glossary On
Versions: 1 2 3 4 5 6 7 8 9 10 11 12 13 14 15 16 17 18 19 20 21 22 23 24 25 26 27 28 29 30 31 32 33 34 35 36 37 38 39 40 41 42 43 44 45 46 47 48 49 50
000
ASUS41 KOKX 301105
RWROKX

REGIONAL WEATHER ROUNDUP
NATIONAL WEATHER SERVICE NEW YORK NY
700 AM EDT SAT AUG 30 2014

NOTE: "FAIR" INDICATES FEW OR NO CLOUDS BELOW 12,000 FEET WITH NO
SIGNIFICANT WEATHER AND/OR OBSTRUCTIONS TO VISIBILITY.

NYZ071-072-176-178-NJZ106-104-301200-
NEW YORK CITY METRO AREA


CITY           SKY/WX    TMP DP  RH WIND       PRES   REMARKS
CENTRAL PARK   CLEAR     66  55  67 CALM      30.30S
LAGUARDIA APRT PTCLDY    68  55  63 CALM      30.27R
KENNEDY INTL   PTCLDY    65  57  75 CALM      30.28R
NEWARK/LIBERTY MOCLDY    64  56  75 CALM      30.28R
BRNX BOT. GARD   N/A     59  57  94 CALM      30.27F
TETERBORO      CLEAR     59  54  83 NW3       30.27R
$$

NYZ177-179-078>081-301200-
LONG ISLAND NEW YORK

CITY           SKY/WX    TMP DP  RH WIND       PRES   REMARKS
FARMINGDALE    CLOUDY    63  58  83 CALM      30.27S
ISLIP          MOCLDY    62  58  86 CALM      30.27S
SHIRLEY        CLEAR     55  53  93 CALM      30.29S
WESTHAMPTON    CLEAR     51  47  86 CALM      30.31R
MONTAUK POINT    N/A     58  54  86 CALM      30.32R
$$

NYZ052-065-067-301200-
HUDSON VALLEY

CITY           SKY/WX    TMP DP  RH WIND       PRES   REMARKS
WHITE PLAINS   PTCLDY    59  57  93 CALM      30.27S
NEWBURGH       PTCLDY    54  54 100 CALM      30.29S
MONTGOMERY     CLEAR     50  48  93 CALM      30.28R
POUGHKEEPSIE   CLEAR     53  51  93 CALM      30.27S
ALBANY         PTCLDY    58  54  86 S5        30.25F
$$

NJZ001-105-106-008-010-013-015-019>022-104-301200-
NEW JERSEY

CITY           SKY/WX    TMP DP  RH WIND       PRES   REMARKS
NEWARK/LIBERTY MOCLDY    64  56  75 CALM      30.28R
TETERBORO      CLEAR     59  54  83 NW3       30.27R
CALDWELL       CLEAR     55  52  89 CALM      30.28R
MORRISTOWN     CLEAR     50  50 100 CALM      30.28R
SOMERVILLE     CLEAR     53  50  89 CALM      30.26R
LINDEN         FAIR      64  58  80 CALM      30.29R
SUSSEX         CLEAR     51  48  89 CALM      30.28R
ANDOVER          N/A     52  51  97 CALM      30.28R
TRENTON        CLEAR     58  53  84 CALM      30.26S
MILLVILLE      CLEAR     56  54  93 CALM      30.26R
ATLANTIC CITY  PTCLDY    56  54  93 MISG      30.26R
WRIGHTSTOWN    CLEAR     54  54  99 CALM      30.25R
TOMS RIVER     CLEAR     48  45  87 CALM      30.28R
BELMAR         CLEAR     59  50  72 CALM      30.27S
$$

PAZ047>061-062-071-301200-
EASTERN PENNSYLVANIA

CITY           SKY/WX    TMP DP  RH WIND       PRES   REMARKS
PHILADELPHIA   PTCLDY    63  58  83 E7        30.26R
ALLENTOWN      CLEAR     57  54  89 N3        30.27R
SCRANTON       MOCLDY    62  57  83 CALM      30.25R
$$

CTZ002-004>006-009-010-012-RIZ004-006-007-MAZ004-011-015-301200-
SOUTHERN NEW ENGLAND
 IN CT

CITY           SKY/WX    TMP DP  RH WIND       PRES   REMARKS
BRADLEY INTL   PTCLDY    54  50  86 CALM      30.29S
HARTFORD       CLEAR     57  55  93 CALM      30.29S
DANBURY        CLEAR     53  51  93 CALM      30.30S
WTRBRY/OXFORD  CLEAR     55  50  82 CALM      30.31S
BRIDGEPORT     CLEAR     67  60  78 SE8       30.28S
MERIDEN        CLEAR     54  51  90 CALM      30.30R
NEW HAVEN      PTCLDY    68  58  70 SE7       30.29S
CHESTER        FAIR      57  55  94 CALM      30.31S
GROTON         CLEAR     55  54  96 N3        30.30R
WILLIMANTIC    FOG       52  51  97 CALM      30.32R VSB 3/4

 IN RI

CITY           SKY/WX    TMP DP  RH WIND       PRES   REMARKS
PROVIDENCE     PTCLDY    56  53  90 CALM      30.32R
BLOCK ISLAND   CLEAR     61  55  82 SE5       30.31S
WESTERLY       PTCLDY    52  51  97 CALM      30.32R

 IN MA

CITY           SKY/WX    TMP DP  RH WIND       PRES   REMARKS
BOSTON         CLEAR     59  55  87 SW6       30.31R
WORCESTER      CLEAR     56  55  97 SW8       30.31R
WESTFIELD      CLEAR     52  50  93 CALM      30.29S
PROVINCETOWN   PTCLDY    57  52  82 S6        30.32S
NANTUCKET      CLEAR     54  47  77 SE6       30.33R
$$

ANZ330-335-338-340-345-350-353-355-301200-
COASTAL MARINE OBSERVATIONS


STATION/POSITION TIME  SKY/WX   TEMP    WIND        PRES    VSBY  WAVE
                                AIR SEA DIR/SP/G                  HT/PER
                 (UTC)          (F)     (DEG/KT/KT) (MB)    (MI)  (FT/S)
NY HARB ENTRANCE NOT AVBL
4S FIRE IS       NOT AVBL
23SW MTP         1100                                 N/A           3/ 9
HUDSON CANYON    1100            71 72  130/  8/ 10 1025.2          3/ 9
EXECUTION ROCKS  1100            68 73  160/  4/  4   N/A
WESTERN LI SOUND 1100            68     160/  4/  6   N/A           0
CENTRAL LI SOUND 1000            68 72  170/  8/ 10   N/A           1
EASTERN LI SOUND 1000            66 68  160/  6/  8   N/A
ROBBINS REEF     1100            67     300/  4/  5   N/A
$$


>>>>>>>>>>>>>>>>>>>>>>>>>>>> KEY <<<<<<<<<<<<<<<<<<<<<<<<<<<
>                                                          <
>     SKY/WX - SKY CONDITION/PRESENT WEATHER               <
>     TMP    - TEMPERATURE IN FAHRENHEIT                   <
>     DP     - DEWPOINT IN FAHRENHEIT                      <
>     RH     - RELATIVE HUMIDITY IN PERCENT                <
>     WIND   - DIRECTION AND SPEED IN MPH                  <
>     PRES   - MEAN SEA LEVEL PRESSURE IN INCHES OF HG     <
>     WCI    - WIND CHILL INDEX                            <
>     VSB    - VISIBILITY IN MILES                         <
>     HX     - HEAT INDEX                                  <
>     TC     - TEMPERATURE IN CELSIUS                      <
>     VRB    - VARIABLE WIND DIRECTION                     <
>                                                          <
>>>>>>>>>>>>>>>>>>>>>>>>>>>> KEY <<<<<<<<<<<<<<<<<<<<<<<<<<<





USA.gov is the U.S. government's official web portal to all federal, state and local government web resources and services.